Naturita, CO

6:19 PM MST on January 16, 2017 (GMT -0700)
Nucla Hopkins Field Airport

Weather History for KAIB - May, 2014

Change the Weather History Date:

Saturday, May 31, 2014

  Actual Average (KTEX) Record (KTEX)
Temperature  
Mean Temperature 68 °F -  
Max Temperature 84 °F 64 °F 80 °F (2002)
Min Temperature 51 °F 40 °F 32 °F (1998)
Cooling Degree Days 2    
Growing Degree Days 18 (Base 50)    
Moisture  
Dew Point 31 °F    
Average Humidity 30    
Maximum Humidity 62    
Minimum Humidity 9    
Precipitation  
Precipitation 0.00 in - - ()
Sea Level Pressure  
Sea Level Pressure 30.09 in    
Wind  
Wind Speed 9 mph (South)    
Max Wind Speed 23 mph    
Max Gust Speed 46 mph    
Visibility 10 miles    
Events Rain    
Averages and records for this station are not official NWS values.
T = Trace of Precipitation, MM = Missing Value Source: NWS Daily Summary

Daily Weather History Graph

Daily Weather History Graph

Search for Another Location

Airport or City:

Trip Planner

Search our weather history database for the weather conditions in past years. The results will help you decide how hot, cold, wet, or windy it might be!

Date:

Astronomy

May. 31, 2014 Rise Set
Actual Time 5:53 AM MDT 8:31 PM MDT
Civil Twilight 5:22 AM MDT 9:02 PM MDT
Nautical Twilight 4:43 AM MDT 9:40 PM MDT
Astronomical Twilight 4:00 AM MDT 10:24 PM MDT
Moon 8:32 AM MDT (5/31) 10:53 PM MDT (5/31)
Length of Visible Light 15h 40m
Length of Day
14h 38m
Waxing Crescent, 9% of the Moon is Illuminated
May 31
Waxing Crescent
Jun 5
First Quarter
Jun 12
Full
Jun 19
Last Quarter
Jun 27
New

Hourly Weather History & Observations

Time (MDT) Temp. Dew Point Humidity Pressure Visibility Wind Dir Wind Speed Gust Speed Precip Events Conditions
12:15 AM 60.8 °F 41.0 °F 48% 30.15 in 10.0 mi ESE 10.4 mph - N/A   Clear
12:35 AM 60.8 °F 41.0 °F 48% 30.15 in 10.0 mi ESE 10.4 mph - N/A   Clear
12:55 AM 60.8 °F 41.0 °F 48% 30.15 in 10.0 mi ESE 9.2 mph - N/A   Clear
1:15 AM 59.0 °F 41.0 °F 51% 30.15 in 10.0 mi ESE 8.1 mph - N/A   Clear
1:35 AM 59.0 °F 41.0 °F 51% 30.15 in 10.0 mi East 10.4 mph - N/A   Clear
1:55 AM 59.0 °F 39.2 °F 48% 30.15 in 10.0 mi ESE 8.1 mph - N/A   Clear
2:15 AM 57.2 °F 41.0 °F 55% 30.14 in 10.0 mi SE 6.9 mph - N/A   Clear
2:35 AM 55.4 °F 41.0 °F 58% 30.14 in 10.0 mi SE 5.8 mph - N/A   Clear
2:55 AM 53.6 °F 41.0 °F 62% 30.14 in 10.0 mi SE 6.9 mph - N/A   Clear
3:15 AM 53.6 °F 39.2 °F 58% 30.14 in 10.0 mi ESE 5.8 mph - N/A   Clear
3:35 AM 53.6 °F 39.2 °F 58% 30.15 in 10.0 mi Calm Calm - N/A   Clear
3:55 AM 53.6 °F 39.2 °F 58% 30.15 in 10.0 mi ESE 4.6 mph - N/A   Clear
4:15 AM 53.6 °F 39.2 °F 58% 30.15 in 10.0 mi ESE 5.8 mph - N/A   Clear
4:35 AM 53.6 °F 37.4 °F 54% 30.15 in 10.0 mi SE 4.6 mph - N/A   Clear
4:55 AM 53.6 °F 37.4 °F 54% 30.15 in 10.0 mi SE 4.6 mph - N/A   Clear
5:15 AM 53.6 °F 37.4 °F 54% 30.15 in 10.0 mi ESE 5.8 mph - N/A   Clear
5:35 AM 51.8 °F 37.4 °F 58% 30.15 in 10.0 mi East 5.8 mph - N/A   Clear
5:55 AM 51.8 °F 37.4 °F 58% 30.16 in 10.0 mi ESE 3.5 mph - N/A   Clear
6:15 AM 51.8 °F 37.4 °F 58% 30.16 in 10.0 mi SE 4.6 mph - N/A   Clear
6:35 AM 51.8 °F 37.4 °F 58% 30.16 in 10.0 mi ESE 3.5 mph - N/A   Clear
6:55 AM 55.4 °F 39.2 °F 54% 30.16 in 10.0 mi ESE 3.5 mph - N/A   Scattered Clouds
7:15 AM 55.4 °F 39.2 °F 54% 30.16 in 10.0 mi ESE 3.5 mph - N/A   Scattered Clouds
7:35 AM 59.0 °F 39.2 °F 48% 30.16 in 10.0 mi East 3.5 mph - N/A   Scattered Clouds
7:55 AM 60.8 °F 37.4 °F 42% 30.16 in 10.0 mi East 3.5 mph - N/A   Scattered Clouds
8:15 AM 60.8 °F 41.0 °F 48% 30.16 in 10.0 mi ESE 3.5 mph - N/A   Clear
8:35 AM 62.6 °F 41.0 °F 45% 30.16 in 10.0 mi North - - N/A   Clear
9:15 AM 68.0 °F 41.0 °F 37% 30.16 in 10.0 mi Calm Calm - N/A   Clear
9:35 AM 69.8 °F 41.0 °F 35% 30.15 in 10.0 mi Calm Calm - N/A   Clear
9:55 AM 71.6 °F 41.0 °F 33% 30.14 in 10.0 mi West 3.5 mph - N/A   Clear
10:35 AM 77.0 °F 39.2 °F 26% 30.13 in 10.0 mi West 6.9 mph - N/A   Clear
10:55 AM 77.0 °F 37.4 °F 24% 30.12 in 10.0 mi West 6.9 mph - N/A   Clear
11:35 AM 80.6 °F 35.6 °F 20% 30.12 in 10.0 mi WSW 15.0 mph 25.3 mph N/A   Clear
11:55 AM 80.6 °F 32.0 °F 17% 30.11 in 10.0 mi SW 12.7 mph 24.2 mph N/A   Clear
12:15 PM 80.6 °F 32.0 °F 17% 30.11 in 10.0 mi SW 11.5 mph 19.6 mph N/A   Clear
12:35 PM 82.4 °F 30.2 °F 15% 30.11 in 10.0 mi SSW 16.1 mph 24.2 mph N/A   Clear
12:55 PM 82.4 °F 26.6 °F 13% 30.11 in 10.0 mi South 23.0 mph 29.9 mph N/A   Clear
1:15 PM 82.4 °F 24.8 °F 12% 30.11 in 10.0 mi WSW 19.6 mph 27.6 mph N/A   Clear
1:35 PM 82.4 °F 23.0 °F 11% 30.10 in 10.0 mi SW 19.6 mph 27.6 mph N/A   Clear
1:55 PM 84.2 °F 24.8 °F 11% 30.10 in 10.0 mi South 13.8 mph 25.3 mph N/A   Clear
2:15 PM 82.4 °F 23.0 °F 11% 30.10 in 10.0 mi SSW 13.8 mph 32.2 mph N/A   Clear
2:35 PM 84.2 °F 23.0 °F 11% 30.09 in 10.0 mi SSW 17.3 mph 27.6 mph N/A   Clear
2:55 PM 84.2 °F 19.4 °F 9% 30.08 in 10.0 mi SW 21.9 mph 33.4 mph N/A   Clear
3:15 PM 84.2 °F 21.2 °F 10% 30.08 in 10.0 mi South 20.7 mph 27.6 mph N/A   Clear
3:35 PM 84.2 °F 23.0 °F 11% 30.07 in 10.0 mi SSW 12.7 mph 25.3 mph N/A   Clear
3:55 PM 84.2 °F 23.0 °F 11% 30.06 in 10.0 mi SSW 13.8 mph 26.5 mph N/A   Clear
4:15 PM 84.2 °F 23.0 °F 11% 30.05 in 10.0 mi SW 21.9 mph 27.6 mph N/A   Clear
4:35 PM 84.2 °F 23.0 °F 11% 30.04 in 10.0 mi SSW 16.1 mph 23.0 mph N/A   Clear
4:55 PM 84.2 °F 23.0 °F 11% 30.04 in 10.0 mi SW 18.4 mph 24.2 mph N/A   Clear
5:15 PM 84.2 °F 23.0 °F 11% 30.03 in 10.0 mi SSW 18.4 mph 25.3 mph N/A   Clear
5:35 PM 84.2 °F 23.0 °F 11% 30.02 in 10.0 mi SSW 11.5 mph 24.2 mph N/A   Clear
5:55 PM 84.2 °F 23.0 °F 11% 30.01 in 10.0 mi South 15.0 mph 24.2 mph N/A   Clear
6:15 PM 82.4 °F 21.2 °F 10% 30.01 in 10.0 mi SSW 12.7 mph 20.7 mph N/A   Clear
6:35 PM 82.4 °F 23.0 °F 11% 30.00 in 10.0 mi SSW 10.4 mph 21.9 mph N/A   Clear
6:55 PM 80.6 °F 23.0 °F 12% 30.00 in 10.0 mi SSW 12.7 mph 18.4 mph N/A   Clear
7:15 PM 80.6 °F 23.0 °F 12% 29.99 in 10.0 mi South 13.8 mph 18.4 mph N/A   Clear
7:35 PM 80.6 °F 21.2 °F 11% 29.99 in 10.0 mi SW 12.7 mph 23.0 mph N/A   Clear
7:55 PM 77.0 °F 23.0 °F 13% 29.99 in 10.0 mi SW 6.9 mph - N/A   Clear
8:15 PM 77.0 °F 23.0 °F 13% 29.99 in 10.0 mi SSW 5.8 mph - N/A   Clear
8:35 PM 77.0 °F 23.0 °F 13% 29.99 in 10.0 mi SW 6.9 mph - N/A   Clear
8:55 PM 75.2 °F 23.0 °F 14% 29.99 in 10.0 mi SW 5.8 mph - N/A   Clear
9:15 PM 73.4 °F 23.0 °F 15% 30.00 in 10.0 mi SW 5.8 mph - N/A   Scattered Clouds
9:35 PM 77.0 °F 24.8 °F 14% 30.00 in 10.0 mi SW 8.1 mph 20.7 mph N/A   Scattered Clouds
9:55 PM 77.0 °F 26.6 °F 16% 30.02 in 10.0 mi SSW 20.7 mph 46.0 mph N/A   Scattered Clouds
10:15 PM 73.4 °F 28.4 °F 19% 30.00 in 10.0 mi SSW 6.9 mph - N/A   Scattered Clouds
10:35 PM 75.2 °F 26.6 °F 17% 30.00 in 10.0 mi SW 9.2 mph - N/A   Clear
10:55 PM 75.2 °F 26.6 °F 17% 30.00 in 10.0 mi SSW 8.1 mph - N/A   Clear
11:15 PM 73.4 °F 30.2 °F 20% 30.01 in 10.0 mi South 19.6 mph 40.3 mph N/A Rain Light Rain
11:35 PM 75.2 °F 24.8 °F 15% 30.00 in 10.0 mi SW 13.8 mph 20.7 mph N/A   Scattered Clouds
11:55 PM 73.4 °F 26.6 °F 18% 29.99 in 10.0 mi SW 9.2 mph - N/A   Clear